This is the latest recevied weather packets stored in our database for station/object DM1RG-6. If no packets are shown the sender has not sent any weather packets the latest 1 day(s).
| Time | Temp. | Humidity | Pressure | Rain* | Wind** | Luminosity | Snow |
|---|---|---|---|---|---|---|---|
| 1777972332 | 15.56° C | 87% | 1008.7 hPa | 0 mm | 0.45 m/s, 26° | - | - |
| 1777971963 | 15.56° C | 86% | 1008.7 hPa | 0 mm | 0 m/s | - | - |
| 1777971604 | 15.56° C | 86% | 1009.1 hPa | 0 mm | 0 m/s | - | - |
| 1777971244 | 15.56° C | 86% | 1008.7 hPa | 0 mm | 0.45 m/s, 6° | - | - |
| 1777970883 | 15.56° C | 86% | 1008.6 hPa | 0 mm | 0.45 m/s, 356° | - | - |
| 1777970523 | 15.56° C | 87% | 1008.6 hPa | 0 mm | 0.45 m/s, 59° | - | - |
| 1777970163 | 15° C | 88% | 1008.6 hPa | 0 mm | 0.89 m/s, 63° | - | - |
| 1777969804 | 15.56° C | 87% | 1008.8 hPa | 0 mm | 0.89 m/s, 51° | - | - |
| 1777969443 | 15° C | 88% | 1009.1 hPa | 0 mm | 0.89 m/s, 70° | - | - |
| 1777969084 | 15.56° C | 88% | 1008.7 hPa | 0 mm | 0.45 m/s, 95° | - | - |
| 1777968724 | 15.56° C | 87% | 1008.9 hPa | 0 mm | 0 m/s | - | - |
| 1777968364 | 15° C | 88% | 1008.8 hPa | 0 mm | 0 m/s | - | - |
| 1777968003 | 15° C | 88% | 1008.9 hPa | 0 mm | 0 m/s | - | - |
| 1777967643 | 15° C | 89% | 1009 hPa | 0 mm | 0 m/s | - | - |
| 1777967283 | 14.44° C | 89% | 1008.9 hPa | 0 mm | 0.45 m/s, 342° | - | - |
| 1777966923 | 14.44° C | 90% | 1009 hPa | 0 mm | 0 m/s | - | - |
| 1777966563 | 15° C | 91% | 1009 hPa | 0 mm | 0 m/s | - | - |
| 1777966204 | 14.44° C | 92% | 1009.1 hPa | 0 mm | 0 m/s | - | - |
| 1777965843 | 13.89° C | 93% | 1009.1 hPa | 0 mm | 0.45 m/s, 111° | - | - |
| 1777965484 | 13.89° C | 93% | 1008.9 hPa | 0 mm | 0.89 m/s, 60° | - | - |
| 1777965123 | 13.89° C | 93% | 1009.1 hPa | 0 mm | 1.34 m/s, 74° | - | - |
| 1777964763 | 13.33° C | 93% | 1009 hPa | 0 mm | 1.79 m/s, 99° | - | - |
| 1777964404 | 13.33° C | 92% | 1009 hPa | 0 mm | 1.34 m/s, 118° | - | - |
| 1777964044 | 13.33° C | 92% | 1009.1 hPa | 0 mm | 1.34 m/s, 86° | - | - |
| 1777963683 | 13.33° C | 92% | 1008.9 hPa | 0 mm | 1.34 m/s, 104° | - | - |
* Rain latest hour (hover to see other rain measurements)
** Current wind speed in m/s (hover to see current wind gust speed)